THOR AGENA D R/B, 727

Orbit data source: Space-Track

THOR AGENA D R/B, 727 is space debris in LEO originally from a launch on Sat, 11 Jan 1964 UTC via a THOR SLV-2A AGENA D launch vehicle from the Air Force Western Test Range (AFWTR). Debris objects in space refer to the collection of defunct objects orbiting the Earth. Examples of debris include non-operational satellites, rocket bodies, and fragments generated from explosions, collisions, or faulty payload assembly.

Loading next visibility...
Identifier
727, 1964-001A
Orbit
LEO
Last TLE update
12 hours ago
Origin
Manufacturer
HRB-Singer
Mission
Spacecraft
Bus & Motor
AFTRACK, Unknown motor
Mass
~700 kg wet, 5 kg dry
Launch date (UTC)
1964-01-11 (61 years ago)
Launch vehicle
THOR SLV-2A AGENA D
Launch site
Air Force Western Test Range (AFWTR)
Object type
Payload
Rocket body
Debris
Shape & HBR
Cyl + 1 Nozzle, 7.08 m
Radar Cross Section
9.225 m², Large (>1 m²)

Expand to show TLE details & history

TLE from 12 hours ago
0 THOR AGENA D R/B
1 00727U 64001A   25129.29436282  .00000039  00000-0  67724-4 0  9994
2 00727  69.9057  77.4234 0015130 215.8697 144.1393 13.95724400120798
Epoch: 2025-05-09T07:03Z
Definitive object data (Epoch: 2025-05-09T07:03:52.947Z)
Latitude
-0.00005°
Longitude
104.1002°
Altitude
919.886 km
Speed
7.388 km/s
True Right ascension
05h 09m 41s
True Declination
0° 00' 00"
Sunlit
Object was in daylight at TLE epoch
Visualization TLE readout
Latitude
-66.11073°
Longitude
47.80584°
Altitude
929.007 km
Speed
7.389 km/s
Apparent Right ascension
16h 46m 35s
Apparent Declination
-77° 09' 53"
Sunlit
Object is in daylight
Visualization observer readout
Local Sidereal Time
02:55:07
Azimuth
189.48° SSW
Elevation
-50.919°
Doppler factor
1
Orbital elements
Apogee altitude
917.713 km
Perigee altitude
895.67 km
Semi-major axis
7,284.829 km
Eccentricity
0.001513
Inclination
69.9057°
RAAN
77.4234°
Arg. of periapsis
215.8697°
True anomaly
144.24071°
Mean anomaly
144.1393°
Eccentric anomaly
144.19002°
Mean motion
3.49071 °/min
BSTAR
0.000067724
Orbital period
103.13 mins
Loading maneuver chart data...
Loading SW <> Apogee altitude chart data...
Loading historical data...
Loading historical data...
Loading historical data...
Loading historical data...
Loading historical data...
Loading historical data...
Loading historical data...
Other satellites on launch #1 in the year 1964 (1964-01-11 UTC)

THOR AGENA D R/B Visibility forecast

Observer location: undefined°, undefined°

Span
Click to sort rows by Start time (UTC) header in descending order
Start Az.
Max El. time (UTC)
Max El. Az.
Max El.
End time (UTC)
End Az.
9 mins2025-05-09 20:56:16.635Z156.895° SSE2025-05-09 21:00:16.635Z110.872° ESE25.168°2025-05-09 21:05:16.635Z49.495° ENE
9 mins2025-05-09 22:42:16.635Z238.411° WSW2025-05-09 22:46:16.635Z305.726° NW34.739°2025-05-09 22:51:16.635Z10.586° NNE
6 mins2025-05-10 05:59:16.635Z17.533° NNE2025-05-10 06:02:16.635Z53.744° ENE18.121°2025-05-10 06:05:16.635Z87.21° E
10 mins2025-05-10 07:43:16.635Z330.763° NNW2025-05-10 07:48:16.635Z240.72° WSW43.902°2025-05-10 07:53:16.635Z165.226° S
|